This demonstration page uses our WeatherBlox Daily Observations layout. Learn more.

Left ArrowRight Arrow

40.97296, -117.73568

Hourly Observations for May 27, 2022

Temp ( °F °C ) Dew Point ( °F °C ) Humidity (%) Winds ( mph kmh ) Pressure ( in mb ) Visibility ( mi km ) Precip ( " mm )
12:56 am 00:56 Clear 58 14.4 31 -0.6 36 36 Calm 29.84 1011 10 16 0.00 0.00
1:56 am 01:56 Clear 53 11.7 31 -0.6 43 43 NW 5 7 29.85 1011 10 16 0.00 0.00
2:56 am 02:56 Clear 52 11.1 30 -1.1 43 43 WSW 6 9 29.85 1011 10 16 0.00 0.00
3:56 am 03:56 Clear 45 7.2 30 -1.1 56 56 S 7 11 29.87 1012 10 16 0.00 0.00
4:56 am 04:56 Clear 46 7.8 30 -1.1 54 54 ESE 5 7 29.88 1012 10 16 0.00 0.00
5:56 am 05:56 Sunny 41 5 29 -1.7 62 62 W 3 6 29.91 1013 10 16 0.00 0.00
6:56 am 06:56 Sunny 53 11.7 32 0 45 45 Calm 29.91 1013 10 16 0.00 0.00
7:56 am 07:56 Sunny 62 16.7 36 2.2 38 38 SE 3 6 29.90 1012 10 16 0.00 0.00
8:56 am 08:56 Sunny 69 20.6 32 0 25 25 Calm 29.88 1012 10 16 0.00 0.00
9:56 am 09:56 Sunny 75 23.9 33 0.6 22 22 VRB 7 11 29.85 1011 10 16 0.00 0.00
10:56 am 10:56 Sunny 76 24.4 27 -2.8 16 16 W 17 28 29.85 1011 10 16 0.00 0.00
11:56 am 11:56 Sunny 79 26.1 29 -1.7 16 16 SSW 16 26 29.85 1011 10 16 0.00 0.00
12:32 pm 12:32 Sunny 78 25.6 27 -2.8 15 15 SW 16 26 29.68 1005 10 16 0.00 0.00
12:56 pm 12:56 Sunny 78 25.6 26 -3.3 15 15 WSW 26 43 29.85 1011 10 16 0.00 0.00
1:56 pm 13:56 Sunny 76 24.4 27 -2.8 16 16 WSW 18 30 29.84 1010 10 16 0.00 0.00
2:56 pm 14:56 Sunny 81 27.2 29 -1.7 15 15 SW 14 22 29.80 1009 10 16 0.00 0.00
3:56 pm 15:56 Sunny 81 27.2 29 -1.7 15 15 WSW 17 28 29.78 1008 10 16 0.00 0.00
4:56 pm 16:56 Sunny 77 25 26 -3.3 15 15 WSW 21 33 29.78 1008 10 16 0.00 0.00
5:56 pm 17:56 Sunny 75 23.9 28 -2.2 18 18 SW 17 28 29.78 1009 10 16 0.00 0.00
6:56 pm 18:56 Partly Cloudy 74 23.3 30 -1.1 20 20 W 12 19 29.75 1008 10 16 0.00 0.00
7:56 pm 19:56 Cloudy 71 21.7 31 -0.6 23 23 W 13 20 29.76 1008 10 16 0.00 0.00
8:56 pm 20:56 Mostly Cloudy 69 20.6 30 -1.1 23 23 W 14 22 29.75 1008 10 16 0.00 0.00
9:56 pm 21:56 Cloudy 67 19.4 30 -1.1 25 25 W 15 24 29.77 1008 10 16 0.00 0.00
10:56 pm 22:56 Cloudy with Light Rain 65 18.3 33 0.6 31 31 WSW 24 39 29.79 1009 10 16 0.00 0.00
11:56 pm 23:56 Cloudy 61 16.1 36 2.2 39 39 SW 3 6 29.78 1009 10 16 0.00 0.00

Powered by AerisWeather